User: anonymous   Login
Location: Al Mulaqqa?ah
(24.1833°N, 32.8833°E)
Time: 10:29:02
(UTC+00:00)
Language:

YAOGAN 1 - Orbit

View from above orbital plane
View from above orbital plane
View from above satellite
View from above satellite

Ground track
Ground track

The orbit data is extracted from the following two-line orbital elements,

1 29092U 06015A   21340.95113635  .00000121  00000-0  21293-4 0  9992
2 29092  97.8933   6.4316 0001410  92.0578 268.0797 14.83230610844407
Epoch (UTC): 06 December 2021 22:49:38
Eccentricity: 0.0001410
inclination: 97.8933°
perigee height: 618 km
apogee height: 620 km
right ascension of ascending node: 6.4316°
argument of perigee: 92.0578°
revolutions per day: 14.83230610
mean anomaly at epoch: 268.0797°
orbit number at epoch: 84440

The dashed part of the orbit path shows where the satellite is in the earth's shadow,  

DLR